When you browse on this site, cookies collect data to enhance your experience and personalize the content and advertising you see.
Visit our Privacy Policy to learn more. By continuing to use the site, you agree to this use of cookies and data.
  • en France
  • Liste des pays
  • À 7 jours
  • Température de l'eau
  • Carte satellitaire
  • Carte météo
  • Widgets météo
  • user-avatar
    Se connecter

    Météo par heure à Djelfa

    Ce jour, 24 Mars, Dimanche

    Heure Température Précipitation Vent Pression Humidité
    00:00 +8°C° 0 mm 3 m/s 666 mmHg 76%
    01:00 +7°C° 0 mm 3 m/s 666 mmHg 76%
    02:00 +7°C° 0 mm 3 m/s 666 mmHg 77%
    03:00 +7°C° 0 mm 3 m/s 666 mmHg 78%
    04:00 +5°C° 0 mm 3 m/s 666 mmHg 78%
    05:00 +6°C° 0 mm 2 m/s 666 mmHg 78%
    06:00 +6°C° 0 mm 2 m/s 666 mmHg 78%
    07:00 +8°C° 0 mm 3 m/s 666 mmHg 69%
    08:00 +8°C° 0 mm 4 m/s 667 mmHg 60%
    09:00 +11°C° 0 mm 4 m/s 668 mmHg 51%
    10:00 +12°C° 0 mm 5 m/s 668 mmHg 48%
    11:00 +13°C° 0 mm 5 m/s 668 mmHg 45%
    12:00 +13°C° 0 mm 5 m/s 668 mmHg 41%
    13:00 +14°C° 0 mm 5 m/s 668 mmHg 40%
    14:00 +14°C° 0 mm 4 m/s 667 mmHg 39%
    15:00 +14°C° 0 mm 4 m/s 667 mmHg 37%
    16:00 +14°C° 0 mm 4 m/s 667 mmHg 38%
    17:00 +13°C° 0 mm 3 m/s 667 mmHg 39%
    18:00 +13°C° 0 mm 3 m/s 666 mmHg 40%
    19:00 +12°C° 0 mm 4 m/s 667 mmHg 41%
    20:00 +11°C° 0 mm 4 m/s 667 mmHg 43%
    21:00 +11°C° 0 mm 4 m/s 667 mmHg 44%
    22:00 +10°C° 0 mm 4 m/s 667 mmHg 46%
    23:00 +8°C° 0 mm 4 m/s 667 mmHg 47%

    Demain, 25 Mars, Lundi

    Heure Température Précipitation Vent Pression Humidité
    00:00 +8°C° 0 mm 4 m/s 667 mmHg 48%
    01:00 +8°C° 0 mm 4 m/s 666 mmHg 49%
    02:00 +8°C° 0 mm 3 m/s 666 mmHg 50%
    03:00 +8°C° 0 mm 3 m/s 665 mmHg 52%
    04:00 +7°C° 0 mm 3 m/s 665 mmHg 52%
    05:00 +7°C° 0 mm 3 m/s 665 mmHg 53%
    06:00 +7°C° 0 mm 3 m/s 665 mmHg 53%
    07:00 +9°C° 0 mm 3 m/s 666 mmHg 48%
    08:00 +10°C° 0 mm 3 m/s 667 mmHg 43%
    09:00 +12°C° 0 mm 4 m/s 667 mmHg 38%
    10:00 +13°C° 0 mm 4 m/s 667 mmHg 36%
    11:00 +14°C° 0 mm 4 m/s 667 mmHg 34%
    12:00 +15°C° 0 mm 4 m/s 667 mmHg 32%
    13:00 +17°C° 0 mm 4 m/s 666 mmHg 33%
    14:00 +16°C° 0 mm 5 m/s 666 mmHg 33%
    15:00 +17°C° 0 mm 5 m/s 665 mmHg 34%
    16:00 +17°C° 0 mm 4 m/s 665 mmHg 35%
    17:00 +17°C° 0 mm 4 m/s 665 mmHg 37%
    18:00 +15°C° 0 mm 4 m/s 664 mmHg 39%
    19:00 +14°C° 0 mm 4 m/s 664 mmHg 42%
    20:00 +13°C° 0 mm 3 m/s 664 mmHg 46%
    21:00 +12°C° 0 mm 3 m/s 664 mmHg 49%
    22:00 +12°C° 0 mm 3 m/s 664 mmHg 49%
    23:00 +12°C° 0 mm 3 m/s 664 mmHg 49%

    Après-demain, 26 Mars, Mardi

    Heure Température Précipitation Vent Pression Humidité
    00:00 +11°C° 0 mm 3 m/s 664 mmHg 49%
    01:00 +11°C° 0.1 mm 3 m/s 663 mmHg 50%
    02:00 +12°C° 0.1 mm 2 m/s 663 mmHg 51%
    03:00 +12°C° 0.1 mm 2 m/s 663 mmHg 53%
    04:00 +12°C° 0 mm 2 m/s 663 mmHg 53%
    05:00 +10°C° 0 mm 2 m/s 662 mmHg 54%
    06:00 +10°C° 0 mm 2 m/s 662 mmHg 54%
    07:00 +13°C° 0 mm 2 m/s 663 mmHg 48%
    08:00 +14°C° 0 mm 3 m/s 664 mmHg 42%
    09:00 +16°C° 0 mm 3 m/s 665 mmHg 35%
    10:00 +17°C° 0 mm 3 m/s 665 mmHg 36%
    11:00 +17°C° 0 mm 2 m/s 665 mmHg 36%
    12:00 +17°C° 0 mm 2 m/s 665 mmHg 37%
    13:00 +17°C° 0 mm 3 m/s 664 mmHg 39%
    14:00 +17°C° 0 mm 3 m/s 664 mmHg 41%
    15:00 +17°C° 0 mm 4 m/s 663 mmHg 44%
    16:00 +15°C° 0 mm 4 m/s 663 mmHg 48%
    17:00 +14°C° 0 mm 3 m/s 663 mmHg 52%
    18:00 +13°C° 0 mm 3 m/s 663 mmHg 56%
    19:00 +12°C° 0 mm 3 m/s 663 mmHg 62%
    20:00 +11°C° 0 mm 4 m/s 664 mmHg 68%
    21:00 +10°C° 0 mm 4 m/s 664 mmHg 74%
    22:00 +10°C° 0 mm 4 m/s 664 mmHg 77%
    23:00 +8°C° 0 mm 4 m/s 663 mmHg 80%

    27 Mars, Mercredi

    Heure Température Précipitation Vent Pression Humidité
    00:00 +8°C° 0 mm 4 m/s 663 mmHg 83%
    01:00 +8°C° 0.4 mm 3 m/s 663 mmHg 84%
    02:00 +8°C° 0.4 mm 3 m/s 662 mmHg 85%
    03:00 +7°C° 0.4 mm 3 m/s 662 mmHg 86%
    04:00 +6°C° 1.3 mm 4 m/s 662 mmHg 86%
    05:00 +6°C° 1.3 mm 4 m/s 662 mmHg 85%
    06:00 +6°C° 1.3 mm 4 m/s 662 mmHg 85%
    07:00 +6°C° 0.7 mm 5 m/s 663 mmHg 82%
    08:00 +7°C° 0.7 mm 5 m/s 663 mmHg 80%
    09:00 +8°C° 0.7 mm 6 m/s 663 mmHg 77%
    10:00 +8°C° 0.3 mm 6 m/s 663 mmHg 75%
    11:00 +8°C° 0.3 mm 6 m/s 663 mmHg 74%
    12:00 +8°C° 0.3 mm 7 m/s 662 mmHg 73%
    13:00 +9°C° 0 mm 6 m/s 662 mmHg 72%
    14:00 +9°C° 0 mm 6 m/s 662 mmHg 71%
    15:00 +9°C° 0 mm 6 m/s 662 mmHg 70%
    16:00 +8°C° 0.2 mm 6 m/s 662 mmHg 73%
    17:00 +8°C° 0.2 mm 6 m/s 662 mmHg 76%
    18:00 +7°C° 0.2 mm 6 m/s 662 mmHg 79%
    19:00 +6°C° 0.1 mm 5 m/s 662 mmHg 81%
    20:00 +6°C° 0.1 mm 4 m/s 663 mmHg 82%
    21:00 +6°C° 0.1 mm 4 m/s 663 mmHg 84%
    22:00 +7°C° 0.3 mm 3 m/s 663 mmHg 85%
    23:00 +7°C° 0.3 mm 3 m/s 663 mmHg 86%

    28 Mars, Jeudi

    Heure Température Précipitation Vent Pression Humidité
    00:00 +7°C° 0.3 mm 3 m/s 663 mmHg 87%
    01:00 +6°C° 1 mm 2 m/s 663 mmHg 88%
    02:00 +6°C° 1 mm 2 m/s 663 mmHg 89%
    03:00 +6°C° 1 mm 2 m/s 663 mmHg 90%
    04:00 +6°C° 0.9 mm 2 m/s 663 mmHg 90%
    05:00 +5°C° 0.9 mm 3 m/s 664 mmHg 90%
    06:00 +4°C° 0.9 mm 3 m/s 664 mmHg 90%
    07:00 +5°C° 0.3 mm 3 m/s 664 mmHg 88%
    08:00 +5°C° 0.3 mm 3 m/s 665 mmHg 85%
    09:00 +5°C° 0.3 mm 3 m/s 665 mmHg 83%
    10:00 +7°C° 0 mm 3 m/s 665 mmHg 77%
    11:00 +8°C° 0 mm 3 m/s 665 mmHg 71%
    12:00 +9°C° 0 mm 3 m/s 665 mmHg 65%
    13:00 +10°C° 0 mm 3 m/s 665 mmHg 61%
    14:00 +10°C° 0 mm 3 m/s 665 mmHg 56%
    15:00 +11°C° 0 mm 3 m/s 665 mmHg 51%
    16:00 +11°C° 0 mm 3 m/s 665 mmHg 50%
    17:00 +12°C° 0 mm 2 m/s 665 mmHg 48%
    18:00 +10°C° 0 mm 2 m/s 665 mmHg 47%
    19:00 +10°C° 0 mm 2 m/s 666 mmHg 48%
    20:00 +9°C° 0 mm 2 m/s 666 mmHg 49%
    21:00 +8°C° 0 mm 2 m/s 667 mmHg 51%
    22:00 +8°C° 0 mm 2 m/s 667 mmHg 54%
    23:00 +7°C° 0 mm 2 m/s 666 mmHg 57%

    29 Mars, Vendredi

    Heure Température Précipitation Vent Pression Humidité
    00:00 +8°C° 0 mm 1 m/s 666 mmHg 60%
    01:00 +7°C° 0 mm 1 m/s 666 mmHg 62%
    02:00 +7°C° 0 mm 1 m/s 666 mmHg 64%
    03:00 +7°C° 0 mm 1 m/s 666 mmHg 65%
    04:00 +6°C° 0 mm 2 m/s 666 mmHg 67%
    05:00 +6°C° 0 mm 2 m/s 666 mmHg 68%
    06:00 +6°C° 0 mm 2 m/s 666 mmHg 70%
    07:00 +7°C° 0 mm 3 m/s 667 mmHg 63%
    08:00 +8°C° 0 mm 4 m/s 667 mmHg 56%
    09:00 +9°C° 0 mm 5 m/s 668 mmHg 50%
    10:00 +10°C° 0 mm 5 m/s 668 mmHg 49%
    11:00 +12°C° 0 mm 5 m/s 668 mmHg 48%
    12:00 +13°C° 0 mm 5 m/s 668 mmHg 46%
    13:00 +12°C° 0.4 mm 4 m/s 667 mmHg 51%
    14:00 +11°C° 0.4 mm 4 m/s 666 mmHg 55%
    15:00 +11°C° 0.4 mm 4 m/s 665 mmHg 60%
    16:00 +10°C° 0.1 mm 3 m/s 665 mmHg 62%
    17:00 +10°C° 0.1 mm 3 m/s 665 mmHg 63%
    18:00 +10°C° 0.1 mm 2 m/s 665 mmHg 65%
    19:00 +10°C° 0.3 mm 2 m/s 666 mmHg 67%
    20:00 +10°C° 0.3 mm 2 m/s 666 mmHg 69%
    21:00 +10°C° 0.3 mm 2 m/s 667 mmHg 71%
    22:00 +10°C° 0.2 mm 3 m/s 667 mmHg 68%
    23:00 +10°C° 0.2 mm 4 m/s 667 mmHg 65%
    Voir plus